EW6576 Weather Reports


Display with metric or nautical units.
time (UTC)temp
F
wind
direction
speed
MPH
gust
MPH
rain 1hr
in
rain 24hr
in
rain mn
in
humidity
%
barometer
mb
20260507025756 61 125 2.0 3.0 0.00 0.00 0.00 83 1016.9
20260507025253 61 132 3.0 3.0 0.00 0.00 0.00 82 1016.8
20260507024751 61 141 3.0 3.0 0.00 0.00 0.00 82 1016.6
20260507024248 61 120 2.0 2.0 0.00 0.00 0.00 81 1016.8
20260507023743 62 113 2.0 2.0 0.00 0.00 0.00 80 1016.7
20260507023240 62 127 3.0 3.0 0.00 0.00 0.00 79 1016.5
20260507022738 62 121 2.0 2.0 0.00 0.00 0.00 78 1016.6
20260507022233 62 125 2.0 2.0 0.00 0.00 0.00 77 1016.5
20260507021730 63 122 2.0 2.0 0.00 0.00 0.00 76 1016.5
20260507021225 63 128 3.0 3.0 0.00 0.00 0.00 76 1016.5
20260507020724 63 104 2.0 2.0 0.00 0.00 0.00 74 1016.3
20260507020220 63 88 3.0 3.0 0.00 0.00 0.00 73 1016.2
20260507015718 64 116 3.0 5.0 0.00 0.00 0.00 73 1016.3
20260507015215 64 163 2.0 2.0 0.00 0.00 0.00 73 1016.2
20260507014712 64 121 2.0 2.0 0.00 0.00 0.00 72 1016.3
20260507014208 64 144 2.0 3.0 0.00 0.00 0.00 71 1016.2
20260507013705 64 120 3.0 3.0 0.00 0.00 0.00 72 1016.1
20260507013202 65 166 3.0 3.0 0.00 0.00 0.00 72 1016.2
20260507012700 65 131 1.0 1.0 0.00 0.00 0.00 72 1016.1
20260507012155 65 67 3.0 3.0 0.00 0.00 0.00 71 1016.0
20260507011653 65 128 5.0 5.0 0.00 0.00 0.00 71 1015.9
20260507011149 65 158 4.0 6.0 0.00 0.00 0.00 72 1015.9
20260507010644 66 137 7.0 8.0 0.00 0.00 0.00 71 1016.3
20260507010140 67 129 4.0 5.0 0.00 0.00 0.00 71 1015.8
20260507005637 67 99 3.0 5.0 0.00 0.00 0.00 70 1016.0
20260507005133 67 179 3.0 3.0 0.00 0.00 0.00 71 1016.1
20260507004630 67 104 4.0 6.0 0.00 0.00 0.00 71 1016.0
20260507004128 67 83 5.0 8.0 0.00 0.00 0.00 71 1016.1
20260507003624 67 92 4.0 6.0 0.00 0.00 0.00 70 1015.9
20260507003120 67 106 6.0 8.0 0.00 0.00 0.00 70 1016.0
20260507002616 69 133 5.0 9.0 0.00 0.00 0.00 66 1015.7
20260507002111 68 125 2.0 2.0 0.00 0.00 0.00 67 1015.9
20260507001608 69 148 3.0 6.0 0.00 0.00 0.00 66 1016.0
20260507001106 69 197 1.0 1.0 0.00 0.00 0.00 65 1015.8
20260507000602 69 82 7.0 9.0 0.00 0.00 0.00 65 1015.6
20260507000058 69 288 7.0 11.0 0.00 0.00 0.00 66 1015.6
20260506235555 69 180 3.0 3.0 0.00 0.00 0.00 64 1015.7
20260506235050 69 170 3.0 3.0 0.00 0.00 0.00 63 1015.6
20260506234548 69 173 5.0 6.0 0.00 0.00 0.00 64 1015.5
20260506234045 69 116 1.0 1.0 0.00 0.00 0.00 65 1015.5
20260506233542 68 177 1.0 2.0 0.00 0.00 0.00 66 1015.6
20260506233039 70 65 5.0 6.0 0.00 0.00 0.00 63 1015.6
20260506232535 69 90 7.0 8.0 0.00 0.00 0.00 64 1015.7
20260506232030 68 125 3.0 6.0 0.00 0.00 0.00 67 1015.6
20260506231528 69 136 6.0 8.0 0.00 0.00 0.00 65 1015.7
20260506231026 71 121 4.0 5.0 0.00 0.00 0.00 62 1015.6
20260506230522 70 111 4.0 5.0 0.00 0.00 0.00 63 1016.0
20260506230020 69 108 1.0 3.0 0.00 0.00 0.00 66 1015.7
20260506225516 70 206 5.0 6.0 0.00 0.00 0.00 65 1016.0
20260506225013 70 166 4.0 5.0 0.00 0.00 0.00 64 1015.8
20260506224509 70 222 4.0 6.0 0.00 0.00 0.00 64 1015.8
20260506224006 69 218 3.0 3.0 0.00 0.00 0.00 65 1016.0
20260506223502 70 166 3.0 5.0 0.00 0.00 0.00 64 1015.9
20260506222959 70 142 1.0 2.0 0.00 0.00 0.00 64 1015.9
20260506222455 71 122 2.0 3.0 0.00 0.00 0.00 63 1016.2
20260506221952 71 179 4.0 6.0 0.00 0.00 0.00 64 1016.0
20260506221449 71 190 1.0 2.0 0.00 0.00 0.00 64 1016.0
20260506220947 70 185 4.0 7.0 0.00 0.00 0.00 64 1016.2
20260506220442 70 93 1.0 3.0 0.00 0.00 0.00 64 1016.2
20260506215939 70 152 4.0 6.0 0.00 0.00 0.00 65 1016.1
20260506215436 70 154 4.0 6.0 0.00 0.00 0.00 63 1016.1
20260506214931 71 177 2.0 3.0 0.00 0.00 0.00 62 1016.1
20260506214428 71 142 2.0 3.0 0.00 0.00 0.00 63 1016.3
20260506213926 71 99 3.0 6.0 0.00 0.00 0.00 63 1016.1
20260506213423 71 162 5.0 7.0 0.00 0.00 0.00 63 1016.0
20260506212921 71 54 4.0 5.0 0.00 0.00 0.00 64 1016.3
20260506212416 71 168 1.0 1.0 0.00 0.00 0.00 66 1016.5
20260506211911 71 205 2.0 3.0 0.00 0.00 0.00 65 1016.1
20260506211408 72 95 10.0 11.0 0.00 0.00 0.00 62 1016.1
20260506210905 71 128 2.0 3.0 0.00 0.00 0.00 62 1016.5
20260506210401 71 103 2.0 3.0 0.00 0.00 0.00 63 1016.6
20260506205859 71 231 5.0 8.0 0.00 0.00 0.00 61 1016.5
20260506205355 71 225 3.0 5.0 0.00 0.00 0.00 61 1016.5
20260506204851 71 109 2.0 2.0 0.00 0.00 0.00 62 1016.5
20260506204349 71 114 5.0 6.0 0.00 0.00 0.00 63 1016.5
20260506203846 71 155 4.0 6.0 0.00 0.00 0.00 63 1016.6
20260506203343 71 210 5.0 6.0 0.00 0.00 0.00 63 1016.6
20260506202840 70 180 3.0 5.0 0.00 0.00 0.00 64 1016.6
20260506202337 70 206 3.0 5.0 0.00 0.00 0.00 65 1016.7
20260506201834 70 199 3.0 3.0 0.00 0.00 0.00 64 1016.7
20260506201331 70 261 4.0 6.0 0.00 0.00 0.00 64 1016.9
20260506200828 71 112 3.0 5.0 0.00 0.00 0.00 62 1016.7
20260506200324 71 322 4.0 5.0 0.00 0.00 0.00 61 1016.7
20260506195820 72 174 2.0 3.0 0.00 0.00 0.00 62 1016.9
20260506195318 72 176 3.0 3.0 0.00 0.00 0.00 59 1016.8
20260506194815 72 116 6.0 9.0 0.00 0.00 0.00 62 1017.0
20260506194311 74 174 2.0 5.0 0.00 0.00 0.00 58 1017.1
20260506193809 73 203 1.0 2.0 0.00 0.00 0.00 53 1017.0
20260506193305 73 187 2.0 3.0 0.00 0.00 0.00 56 1017.1
20260506192801 73 264 3.0 5.0 0.00 0.00 0.00 57 1017.2
20260506192258 74 248 1.0 2.0 0.00 0.00 0.00 56 1017.1
20260506191756 74 210 2.0 3.0 0.00 0.00 0.00 53 1017.2
20260506191252 74 222 3.0 5.0 0.00 0.00 0.00 54 1017.3
20260506190749 73 266 3.0 5.0 0.00 0.00 0.00 55 1017.4
20260506190240 71 183 0.0 1.0 0.00 0.00 0.00 57 1017.3
20260506185737 71 168 0.0 0.0 0.00 0.00 0.00 58 1017.4
20260506185234 71 241 0.0 0.0 0.00 0.00 0.00 57 1017.5
20260506184731 71 125 3.0 5.0 0.00 0.00 0.00 58 1017.6
20260506184228 70 78 2.0 3.0 0.00 0.00 0.00 58 1017.7
20260506183725 71 142 3.0 5.0 0.00 0.00 0.00 57 1017.6
20260506183221 71 320 4.0 5.0 0.00 0.00 0.00 57 1017.6
20260506182718 71 312 7.0 9.0 0.00 0.00 0.00 56 1017.6
20260506182215 69 168 2.0 3.0 0.00 0.00 0.00 58 1017.7
20260506181713 69 175 1.0 1.0 0.00 0.00 0.00 58 1017.8
20260506181211 69 182 2.0 2.0 0.00 0.00 0.00 57 1017.8
20260506180707 70 306 3.0 5.0 0.00 0.00 0.00 57 1017.9
20260506180203 69 172 2.0 2.0 0.00 0.00 0.00 59 1018.0
20260506175700 69 130 0.0 1.0 0.00 0.00 0.00 58 1018.0
20260506175157 68 157 0.0 0.0 0.00 0.00 0.00 60 1018.0
20260506174654 69 306 2.0 2.0 0.00 0.00 0.00 58 1018.0
20260506174151 68 158 0.0 0.0 0.00 0.00 0.00 62 1018.2
20260506173649 68 131 1.0 2.0 0.00 0.00 0.00 61 1018.1
20260506173145 67 63 0.0 1.0 0.00 0.00 0.00 61 1018.0
20260506172642 68 182 3.0 3.0 0.00 0.00 0.00 59 1018.2
20260506172139 67 149 0.0 0.0 0.00 0.00 0.00 62 1018.1
20260506171631 67 164 2.0 2.0 0.00 0.00 0.00 63 1018.4
20260506171128 66 261 3.0 3.0 0.00 0.00 0.00 62 1018.3
20260506170625 66 230 0.0 1.0 0.00 0.00 0.00 63 1018.1
20260506170117 67 245 2.0 3.0 0.00 0.00 0.00 62 1018.2
20260506165615 67 305 1.0 1.0 0.00 0.00 0.00 60 1018.1
20260506165111 66 106 0.0 0.0 0.00 0.00 0.00 63 1018.3
20260506164608 66 63 0.0 1.0 0.00 0.00 0.00 65 1018.3
20260506164106 65 315 0.0 1.0 0.00 0.00 0.00 68 1018.5
20260506163601 64 340 1.0 1.0 0.00 0.00 0.00 69 1018.4
20260506163057 64 316 1.0 3.0 0.00 0.00 0.00 69 1018.4
20260506162553 64 222 1.0 1.0 0.00 0.00 0.00 70 1018.4
20260506162046 64 87 1.0 1.0 0.00 0.00 0.00 69 1018.4
20260506161543 64 289 2.0 3.0 0.00 0.00 0.00 70 1018.3
20260506161039 64 244 0.0 1.0 0.00 0.00 0.00 70 1018.5
20260506160537 63 158 0.0 0.0 0.00 0.00 0.00 71 1018.4
20260506160034 62 124 0.0 0.0 0.00 0.00 0.00 72 1018.4
20260506155533 62 98 2.0 2.0 0.00 0.00 0.00 72 1018.3
20260506153709 61 99 0.0 0.0 0.00 0.00 0.00 74 1018.5
20260506153207 62 9 0.0 1.0 0.00 0.00 0.00 74 1018.4
20260506152704 61 144 0.0 0.0 0.00 0.00 0.00 75 1018.4
20260506152201 60 156 0.0 0.0 0.00 0.00 0.00 75 1018.5
20260506151700 61 312 1.0 1.0 0.00 0.00 0.00 73 1018.2
20260506151156 61 274 0.0 1.0 0.00 0.00 0.00 73 1018.3
20260506150653 61 103 0.0 0.0 0.00 0.00 0.00 74 1018.5
20260506150150 59 126 0.0 0.0 0.00 0.00 0.00 78 1018.5
20260506145647 59 68 0.0 0.0 0.00 0.00 0.00 80 1018.6
20260506145143 57 179 0.0 0.0 0.00 0.00 0.00 88 1018.5
20260506144641 56 84 0.0 0.0 0.00 0.00 0.00 94 1018.7
20260506144137 55 141 0.0 0.0 0.00 0.00 0.00 97 1018.7
20260506143635 54 141 0.0 0.0 0.00 0.00 0.00 99 1018.5
20260506143133 53 164 0.0 0.0 0.00 0.00 0.00 99 1018.4
20260506142632 53 152 0.0 0.0 0.00 0.00 0.00 99 1018.4
20260506142129 52 152 0.0 0.0 0.00 0.00 0.00 99 1018.4
20260506141626 50 151 0.0 0.0 0.00 0.00 0.00 99 1018.2
20260506141125 50 152 0.0 0.0 0.00 0.00 0.00 99 1018.5
20260506140622 49 154 0.0 0.0 0.00 0.00 0.00 99 1018.6
20260506140119 49 156 0.0 0.0 0.00 0.00 0.00 99 1018.5
20260506135616 48 156 0.0 0.0 0.00 0.00 0.00 99 1018.4
20260506135112 48 172 0.0 0.0 0.00 0.00 0.00 99 1018.2
20260506134609 47 172 0.0 0.0 0.00 0.00 0.00 99 1018.3
20260506134104 47 172 0.0 0.0 0.00 0.00 0.00 99 1018.2
20260506133602 46 171 0.0 0.0 0.00 0.00 0.00 99 1018.1
20260506133059 46 171 0.0 0.0 0.00 0.00 0.00 99 1018.0
20260506132556 46 171 0.0 0.0 0.00 0.00 0.00 99 1018.1
20260506132053 46 171 0.0 0.0 0.00 0.00 0.00 99 1018.3
20260506131550 46 172 0.0 0.0 0.00 0.00 0.00 99 1018.2
20260506131047 46 171 0.0 0.0 0.00 0.00 0.00 99 1018.0
20260506130543 45 171 0.0 0.0 0.00 0.00 0.00 99 1017.8
20260506130041 45 171 0.0 0.0 0.00 0.00 0.00 99 1017.8
20260506125539 45 171 0.0 0.0 0.00 0.00 0.00 99 1017.9
20260506125037 45 171 0.0 0.0 0.00 0.00 0.00 99 1017.9
20260506124534 45 171 0.0 0.0 0.00 0.00 0.00 99 1017.9
20260506124032 45 171 0.0 0.0 0.00 0.00 0.00 99 1017.9
20260506123529 45 171 0.0 0.0 0.00 0.00 0.00 99 1017.6
20260506123028 46 171 0.0 0.0 0.00 0.00 0.00 99 1017.7
20260506122524 46 172 0.0 0.0 0.00 0.00 0.00 99 1017.7
20260506122022 46 171 0.0 0.0 0.00 0.00 0.00 99 1017.7
20260506121520 45 171 0.0 0.0 0.00 0.00 0.00 99 1017.6
20260506121015 45 171 0.0 0.0 0.00 0.00 0.00 99 1017.5
20260506120514 46 171 0.0 0.0 0.00 0.00 0.00 99 1017.8
20260506120011 45 171 0.0 0.0 0.00 0.00 0.00 99 1017.8
20260506115509 45 171 0.0 0.0 0.00 0.00 0.00 99 1017.5
20260506115007 46 171 0.0 0.0 0.00 0.00 0.00 99 1017.8
20260506114504 46 171 0.0 0.0 0.00 0.00 0.00 99 1017.6
20260506114002 47 171 0.0 0.0 0.00 0.00 0.00 99 1017.4
20260506113500 46 172 0.0 0.0 0.00 0.00 0.00 99 1017.5
20260506112956 46 171 0.0 0.0 0.00 0.00 0.00 99 1017.5
20260506112453 46 172 0.0 0.0 0.00 0.00 0.00 99 1017.4
20260506111950 46 171 0.0 0.0 0.00 0.00 0.00 99 1017.4
20260506111449 46 171 0.0 0.0 0.00 0.00 0.00 99 1017.6
20260506110945 46 171 0.0 0.0 0.00 0.00 0.00 99 1017.4
20260506110443 46 172 0.0 0.0 0.00 0.00 0.00 99 1017.5
20260506105939 47 171 0.0 0.0 0.00 0.00 0.00 99 1017.4
20260506105436 46 171 0.0 0.0 0.00 0.00 0.00 99 1017.5
20260506104933 46 171 0.0 0.0 0.00 0.00 0.00 99 1017.3
20260506104431 47 171 0.0 0.0 0.00 0.00 0.00 99 1017.5
20260506103930 47 171 0.0 0.0 0.00 0.00 0.00 99 1017.2
20260506103427 47 171 0.0 0.0 0.00 0.00 0.00 99 1017.5
20260506102924 47 171 0.0 0.0 0.00 0.00 0.00 99 1017.5
20260506102421 47 171 0.0 0.0 0.00 0.00 0.00 99 1017.5
20260506101918 47 172 0.0 0.0 0.00 0.00 0.00 99 1017.4
20260506101414 47 172 0.0 0.0 0.00 0.00 0.00 99 1017.4
20260506100912 47 172 0.0 0.0 0.00 0.00 0.00 99 1017.3
20260506100410 47 172 0.0 0.0 0.00 0.00 0.00 99 1017.3
20260506095908 47 172 0.0 0.0 0.00 0.00 0.00 99 1017.3
20260506095406 47 172 0.0 0.0 0.00 0.00 0.00 99 1017.3
20260506094902 47 172 0.0 0.0 0.00 0.00 0.00 98 1017.4
20260506094401 47 172 0.0 0.0 0.00 0.00 0.00 98 1017.2
20260506093858 47 172 0.0 0.0 0.00 0.00 0.00 98 1017.2
20260506093356 48 172 0.0 0.0 0.00 0.00 0.00 98 1017.3
20260506092853 48 172 0.0 0.0 0.00 0.00 0.00 98 1017.3
20260506092351 47 172 0.0 0.0 0.00 0.00 0.00 98 1017.4
20260506091847 48 172 0.0 0.0 0.00 0.00 0.00 98 1017.3
20260506091346 48 172 0.0 0.0 0.00 0.00 0.00 98 1017.4
20260506090842 48 172 0.0 0.0 0.00 0.00 0.00 98 1017.4
20260506090340 48 172 0.0 0.0 0.00 0.00 0.00 98 1017.5
20260506085837 48 172 0.0 0.0 0.00 0.00 0.00 98 1017.3
20260506085333 49 172 0.0 0.0 0.00 0.00 0.00 98 1017.4
20260506084830 49 172 0.0 0.0 0.00 0.00 0.00 98 1017.7
20260506084326 49 169 0.0 0.0 0.00 0.00 0.00 98 1017.7
20260506083823 48 125 0.0 0.0 0.00 0.00 0.00 98 1017.6
20260506083320 48 125 0.0 0.0 0.00 0.00 0.00 98 1017.6
20260506082818 48 125 0.0 0.0 0.00 0.00 0.00 98 1017.8
20260506082314 48 125 0.0 0.0 0.00 0.00 0.00 97 1018.0
20260506081810 49 125 0.0 0.0 0.00 0.00 0.00 97 1017.9
20260506081309 49 125 0.0 0.0 0.00 0.00 0.00 97 1017.6
20260506080806 49 125 0.0 0.0 0.00 0.00 0.00 97 1017.8
20260506080302 49 140 0.0 0.0 0.00 0.00 0.00 97 1017.8
20260506073246 50 160 0.0 0.0 0.00 0.00 0.00 96 1018.0
20260506072743 50 160 0.0 0.0 0.00 0.00 0.00 96 1018.2
20260506072241 50 160 0.0 0.0 0.00 0.00 0.00 96 1018.0
20260506071738 50 160 0.0 0.0 0.00 0.00 0.00 96 1018.0
20260506071236 51 160 0.0 0.0 0.00 0.00 0.00 96 1018.2
20260506070733 51 160 0.0 0.0 0.00 0.00 0.00 96 1018.0
20260506070230 51 160 0.0 0.0 0.00 0.00 0.00 95 1017.9
20260506062207 52 164 0.0 0.0 0.00 0.65 0.65 94 1017.5
20260506061703 52 164 0.0 0.0 0.00 0.65 0.65 94 1017.6
20260506061200 52 164 0.0 0.0 0.00 0.65 0.65 94 1017.6
20260506060659 53 164 0.0 0.0 0.00 0.65 0.65 93 1017.6
20260506060155 53 138 0.0 0.0 0.00 0.65 0.65 93 1017.6
20260506051127 53 156 0.0 1.0 0.00 0.65 0.65 92 1017.6
20260506050626 53 154 0.0 0.0 0.00 0.65 0.65 91 1017.4
20260506050122 53 155 0.0 0.0 0.00 0.65 0.65 90 1017.4
20260506045115 54 145 0.0 0.0 0.00 0.65 0.65 89 1017.4
20260506044613 54 143 0.0 0.0 0.00 0.65 0.65 90 1017.2
20260506044110 54 142 0.0 0.0 0.00 0.65 0.65 90 1017.2
20260506043607 54 146 0.0 0.0 0.00 0.65 0.65 89 1017.1
20260506043105 54 145 0.0 0.0 0.00 0.65 0.65 89 1016.8
20260506042604 54 145 0.0 0.0 0.00 0.65 0.65 88 1017.2
20260506042102 54 147 0.0 0.0 0.00 0.65 0.65 88 1017.1
20260506041600 54 117 0.0 0.0 0.00 0.65 0.65 88 1016.9
20260506041056 54 109 1.0 2.0 0.00 0.65 0.65 88 1016.8
20260506040555 54 123 1.0 1.0 0.00 0.65 0.65 87 1016.7
20260506040050 55 159 1.0 1.0 0.00 0.65 0.65 86 1016.7
20260506035548 54 159 0.0 1.0 0.00 0.65 0.65 86 1016.7
20260506035044 54 119 1.0 1.0 0.00 0.65 0.65 86 1016.5
20260506034542 54 121 0.0 0.0 0.00 0.65 0.65 86 1016.2
20260506034038 54 161 0.0 1.0 0.00 0.65 0.65 86 1016.5
20260506033536 55 164 1.0 1.0 0.00 0.65 0.65 85 1016.5
20260506033033 55 131 1.0 2.0 0.00 0.65 0.65 84 1016.2
20260506032530 55 195 1.0 1.0 0.00 0.65 0.65 84 1016.3
20260506032026 55 171 0.0 0.0 0.00 0.65 0.65 84 1015.8
20260506031524 55 161 0.0 1.0 0.00 0.65 0.65 83 1016.3
20260506031021 55 183 0.0 0.0 0.00 0.65 0.65 82 1016.2
20260506030519 56 192 1.0 1.0 0.00 0.65 0.65 81 1016.1
20260506030016 56 175 0.0 0.0 0.00 0.65 0.65 80 1015.9